Погода Старая Русса

Погода Старая Русса : погода сейчас, прогноз погоды и архив. Всё, что Вы хотите узнать о погоде Старая Русса!

Хотите узнать прогноз погоды Старая Русса? Тогда Вам сюда: Погода Старая Русса

Поиск расширенной информации на нашем сайте:

Другие новости

Новости СМИ2

Главная страница сайта

Новости сайта

03.07.2017

Напоминаем, что на нашем специализированном сайте Метеоцентр.Азия вы можете получить высокодетализированные автоматические прогнозы погоды по пунктам России, СНГ и мира в авиационном формате (включающие направление и скорость ветра, видимость, явления погоды, количество и форму облачности, нижнюю и верхнюю границу облачности).

Рекомендуем: Смотрите подробности грузоперевозки по европе у нас.

Погода Старая Русса - сегодня

Время (UTC), дата Ветер
(°,м/с) 
Видим.   Явления Облачность Т
(°С)
Тd
(°С)
f(%) Тe
(°С)
Pmin
(гПа)
dP
(гПа)
Po
(мм)
O2
(г/м3)
Тmin Tmax R s Состояние
почвы
15 14.06.18 170 (Ю) 20000 м    6/3 600 м кучево-дожд., средняя 
[Cb cap|Ac trans]
+19 +9 52 +20  1015.1  -0.3  759  284           
21 14.06.18 150 (ЮВ) 20000 м    4/0 средняя 
[Ac trans]
+12.1 +9.7 85 +14  1016.3  0.8  760  291           
00 15.06.18 160 (Ю) 20000 м    ясно 
+11.8 +9.6 86 +12  1017.1  0.8  761  292           
09 15.06.18 160 (Ю) 20000 м    3/0 верхняя 
[Ci fib]
+20.6 +7.5 43 +21  1018.4  0.1  762  284           
12 15.06.18 150 (ЮВ) 20000 м    1/0 верхняя 
[Ci fib]
+22.7 +6.5 35 +23  1018  -0.4  761  282           
15 15.06.18 100 (В) 20000 м    6/1 600 м верхняя 
[Cu med, cong|Ci fib]
+23.2 +6.2 33 +23  1017.3  -0.7  761  282           
21 15.06.18 тихо ()   20000 м    3/0 верхняя 
[Ci fib]
+9.5 +8.5 93 +10  1018.3  0.8  761  295           
00 16.06.18 300 (СЗ) 20000 м    4/0 верхняя 
[Ci fib]
+7.1 +6.6 97 +8  1019.2  0.8  762  298           
09 16.06.18 150 (ЮВ) 20000 м    3/1 600 м средняя, верхняя 
[Cu hum|Ac lent|Ci sp]
+22.1 +6.6 37 +22  1019.9  0.1  763  283           
12 16.06.18 150 (ЮВ) 20000 м    9/0 средняя, верхняя 
[Ac trans|Ci sp]
+23.1 +6.7 35 +23  1019.1  -0.8  762  282           
21 16.06.18 060 (СВ) 20000 м  {дождь}  10/0 средняя 
[Ac As]
+15 +11 77 +18  1019.1  762  289           
03 17.06.18 090 (В) 20000 м  {ливн. осадки}  9/0 средняя 
[Ac trans]
+15.3 +11.2 77 +18  1019  0.1  762  289  +13.3    0.3     
09 17.06.18 130 (ЮВ) 20000 м  {ливн. осадки}  9/0 средняя 
[Ac trans]
+19.4 +11.3 59 +23  1018.7  762  285           
15 17.06.18 170 (Ю) 20000 м    8/0 средняя, верхняя 
[Ac trans|Ci fib]
+21.5 +10.9 51 +24  1017.4  -0.4  761  282      0.0     
21 17.06.18 050 (СВ) 20000 м    9/6 600 м средняя 
[Sc|Ac trans]
+15.3 +13.5 89 +23  1016.6  -0.4  760  287           
00 18.06.18 тихо ()   20000 м    9/8 600 м средняя 
[Sc|Ac trans]
+14.4 +13.4 94 +20  1016.1  -0.6  760  288           
09 18.06.18 240 (ЮЗ) 20000 м    9/8 600 м кучево-дожд., средняя 
[Cb cap|Ac trans]
+22.1 +15.7 67 +32  1015  -0.1  759  280           
12 18.06.18 230 (ЮЗ) 20000 м    9/4 600 м средняя, верхняя 
[Cu med, cong|Ac trans|Ci fib]
+24 +15.1 58 +33  1014.6  -0.4  759  278           
15 18.06.18 250 (З) 20000 м    3/3 600 м верхняя 
[Cu med, cong|Ci sp]
+24.8 +13.6 50 +31  1013.4  -1.2  758  277           
21 18.06.18 230 (ЮЗ) 20000 м    5/1 600 м кучево-дожд., средняя 
[Cb cap|Ac trans]
+16.9 +14.3 85 +25  1013  0.2  758  285           
00 19.06.18 290 (З) 20000 м    9/0 средняя, верхняя 
[Ac trans|Cs]
+15.6 +13.8 89 +23  1013.1  -0.1  758  286           
03 19.06.18 210 (ЮЗ) 20000 м  {ливн. осадки}  9/3 600 м кучево-дожд., средняя 
[Cb cap|Ac und]
+14 +13.2 95 +20  1013.6  0.5  758  288  +13.8    0.9     
09 19.06.18 240 (ЮЗ) 20000 м    9/6 600 м верхняя 
[Cu med, cong|Ci fib]
+20.8 +11.3 55 +24  1011.7  -2  757  281           
12 19.06.18 240 (ЮЗ) 20000 м    9/4 300 м кучево-дожд., средняя 
[Cb cap|Ac trans]
+20.7 +11.2 54 +23  1010.1  -1.6  755  281           
21 19.06.18 220 (ЮЗ) 3{12}  20000 м  {ливн. осадки}  ясно 
+11 +10.2 95 +12  1008.3  1.4  754  290           
Время (UTC), дата Ветер
(°,м/с) 
Видим.   Явления Облачность Т
(°С)
Тd
(°С)
f(%) Тe
(°С)
Pmin
(гПа)
dP
(гПа)
Po
(мм)
O2
(г/м3)
Тmin Tmax R s Состояние
почвы

Для получения пояснительной информации подведите курсор к названию столбца.

ПОГОДА Старая Русса - архив

Всё, что Вы хотите узнать о погоде Старая Русса - удобно и подробно!

Выберите нужную дату (начиная с 1 января 2015* года) и нажмите кнопку "Найти".
Будут отображены архивные сводки погоды по пункту Старая Русса, начиная с указанной даты.


Отображать данные в формате CSV (для использования в таблицах Excel)


Внимание! Наш архив погоды предназначен исключительно для личного некоммерческого использования в познавательных целях. Если Вам необходимы официальные справки о состоянии погоды (для производственных, юридических, коммерческих и т.п. целей), обращайтесь в органы Росгидромета.

*Примечание: данная дата относится к архиву по метеостанциям СССР (Россия, СНГ, Балтия).
Архив по метеостанциям Зарубежной Европы и Азии (кроме Китая) хранится 10 дней, по другим регионам земного шара (Китай, Африка, Америка, Австралия, Океания) - 1 день.

Старая Русса - район местоположения метеостанции


Название, широта, долгота, высота метеостанции:
Старая Русса 58°ш. 31.3°д. 25 м над ур. моря [Российская Федерация]

Дополнительная информация

В oтличие oт бoльшинства пoгoдных сайтoв мы публикуем пoдрoбную метеoинфoрмацию в детальнoм прoфессиoнальнoм фoрмате.

Характеристики температуры и влажнoсти вoздуха измеряются на высoте 2 м в тени вдали oт зданий и деревьев.
Скoрoсть ветра измеряется на высoте 10 м (на урoвне рoста челoвека скoрoсть ветра ниже в 1.5-2 раза). Если метеoстанция нахoдится в гoрoде или в лесу, тo скoрoсть ветра занижена на 2-4 м/с пo сравнению с oткрытым местoм. Скoрoсть ветра над акватoриями крупных рек и oзёр, а также на вершинах хoлмoв на 2-5 м/с выше, чем в oбычных услoвиях.
Атмoсфернoе давление в разных тoчках местнoсти мoжет значительнo oтличаться oт давления на метеoстанции, в зависимoсти oт услoвий рельефа (при пoдъёме на 10 м давление пoнижается примернo на 1 мм рт.ст.).